COMS 1

Last updated on Oct. 27, 2021, 12:02 a.m. UTC

1 36744U 10032A   21299.43169275 -.00000337  00000-0  00000-0 0  9994
2 36744   0.4941  95.9989 0000580 165.4244  57.2109  1.00265083 34097
UTC
Height (km)
Latitude
Longitude
Inclination
Orbital Period
UTC large
Height (km)
Speed (km/s)
/
Latitude / Longitude
Inclination (degrees)
Orbital Period (minutes)
Azimuth
Elevation
Range (km)
Doppler Factor
iOS Compass Heading
iOS Angle